GFSGL_sfc_dewp_057.txt.gz
Dewpoint
64 67 68 69 70 69 69 68 67 68 67 68 68 66 65 65 65 63 62 62 62 61 61 60 60 61 61 60 61 60 58 57 55 58 60 61 61 62 63 63 63 62 61
67 67 68 69 69 69 68 68 69 68 68 67 65 64 64 64 63 62 62 62 60 60 60 60 60 62 60 60 60 60 59 58 58 57 59 60 60 62 63 62 62 62 62
67 68 68 68 67 66 65 66 67 67 65 64 64 63 63 64 63 63 60 61 61 61 61 60 59 59 59 60 61 61 59 60 58 58 57 59 59 60 60 61 61 60 61
67 66 66 66 66 66 65 65 64 64 62 63 63 63 63 63 60 59 61 61 62 61 61 60 58 59 59 59 60 61 60 59 57 57 57 56 57 58 59 58 57 58 58
65 65 65 65 65 65 64 63 62 61 60 60 60 60 61 61 60 61 62 61 61 60 59 59 58 59 58 58 61 61 60 57 57 57 56 56 56 57 56 56 55 55 55
65 64 64 64 63 63 62 61 61 60 60 60 60 58 57 57 49 54 60 61 61 59 58 58 59 59 58 54 57 57 59 58 56 56 56 56 56 55 56 55 55 55 52
63 63 63 62 62 61 61 61 60 61 60 60 60 58 56 54 48 51 55 61 60 59 58 58 60 61 59 58 54 55 55 54 55 56 56 56 55 56 56 55 55 53 53
62 61 60 60 61 61 60 60 61 62 61 62 62 60 56 53 49 52 53 61 60 59 59 58 60 60 58 59 59 59 58 57 57 57 57 56 56 56 56 56 54 54 55
58 57 58 60 60 60 60 60 62 62 60 60 62 59 56 55 49 51 54 61 60 59 59 59 59 59 50 49 60 58 56 55 52 51 51 49 48 50 53 54 54 53 52
55 55 59 60 60 60 60 61 60 60 60 62 62 60 55 55 46 48 54 61 59 58 58 58 47 54 46 49 59 57 56 56 55 54 53 50 52 51 50 55 54 53 52
54 57 60 60 60 60 62 61 61 61 61 61 60 60 58 55 52 47 51 61 60 59 58 57 54 45 46 47 52 58 56 56 53 56 56 56 55 56 56 56 55 53 52
58 59 60 60 61 61 61 61 61 61 60 58 60 60 60 56 50 46 46 54 55 58 58 57 51 44 44 47 52 45 47 53 56 56 55 55 55 55 56 56 55 54 57
58 59 59 59 61 61 61 61 60 61 60 58 59 60 58 55 53 44 44 47 52 56 57 51 43 43 44 47 45 46 50 56 56 55 55 55 55 55 57 56 56 55 56
58 58 59 60 60 61 61 61 61 60 60 58 58 58 59 58 55 52 52 52 48 49 48 50 48 48 49 51 52 54 57 57 56 55 55 55 56 55 55 55 54 55 55
58 59 59 59 59 54 51 52 59 56 57 60 59 57 58 58 57 54 54 55 55 51 53 56 56 56 55 56 57 57 56 56 55 55 55 55 55 54 54 54 53 55 56
58 58 59 59 57 57 56 53 42 42 43 47 50 56 54 50 46 46 45 44 44 45 55 55 54 55 56 56 57 56 56 54 55 56 55 54 54 54 54 53 53 53 54
57 57 58 58 59 58 57 56 54 49 42 42 42 44 47 45 43 43 43 44 42 48 55 54 54 55 56 57 57 56 56 56 56 55 55 54 54 54 51 53 53 53 53
57 52 58 58 58 58 58 57 56 56 55 53 43 42 40 41 42 42 42 46 53 52 55 55 55 55 56 56 56 56 56 56 56 55 55 55 54 54 53 53 53 53 54
57 57 56 59 57 57 58 57 57 57 55 52 50 46 40 39 40 41 44 56 55 55 54 55 55 56 56 56 56 56 56 56 56 56 56 55 56 55 54 54 54 47 49
56 52 53 57 56 57 58 58 57 56 55 55 54 51 49 51 54 54 56 57 55 57 56 55 56 56 56 56 56 56 56 54 56 57 57 56 57 56 55 55 55 54 53
54 50 47 56 56 56 57 59 58 56 56 56 54 52 45 55 55 56 57 57 57 57 58 56 56 56 56 56 56 56 56 56 56 57 58 57 57 56 56 55 55 55 55
51 51 54 54 55 56 57 58 59 57 56 55 54 51 39 55 55 56 57 57 58 58 58 58 57 57 56 56 57 57 58 58 58 59 59 59 59 57 56 55 55 55 56
51 52 54 53 55 51 56 58 58 58 56 55 55 54 51 54 56 56 57 59 60 60 56 53 56 55 53 53 53 54 58 58 58 59 58 58 58 58 57 56 56 56 55
51 53 54 55 53 55 56 57 57 53 55 55 55 55 55 57 56 56 51 49 48 47 47 46 44 43 45 44 43 42 42 43 47 52 58 58 58 55 58 59 59 58 58
57 57 56 56 56 55 56 56 55 55 55 56 56 56 54 52 50 47 46 44 43 42 40 39 42 40 37 36 37 39 37 36 43 39 57 56 53 55 56 56 57 56 54
53 53 53 53 53 52 53 52 53 54 53 52 51 49 48 46 44 44 43 39 37 36 35 34 33 33 33 33 33 33 33 34 39 39 47 48 46 46 46 47 47 48 46

GFSGL_sfc_dewp_060.txt.gz
Dewpoint
61 63 64 65 66 68 67 67 67 67 67 67 67 66 66 65 64 63 62 62 61 60 60 59 59 59 60 60 60 58 58 56 53 58 59 59 61 62 63 62 62 62 60
62 64 66 67 68 68 67 67 67 66 67 67 67 66 65 65 63 62 61 62 61 60 59 59 59 61 59 59 59 59 57 57 56 56 59 59 60 62 62 61 62 62 61
64 66 66 67 68 68 67 67 67 67 67 66 65 64 64 64 62 61 61 61 60 60 59 59 59 60 57 59 59 60 59 59 57 58 57 59 59 61 60 60 60 60 60
66 66 66 66 66 66 67 68 67 66 65 64 63 63 63 63 62 62 61 60 60 60 60 59 59 58 58 59 59 60 59 57 57 57 57 57 58 59 60 58 57 58 57
66 66 65 65 65 65 64 65 65 66 64 63 62 62 63 63 60 60 60 60 60 59 59 59 58 58 58 58 61 60 60 58 57 56 56 56 56 57 57 56 55 56 56
65 65 65 64 64 64 63 62 61 61 61 60 60 59 59 58 52 55 60 60 59 58 57 57 57 57 57 54 56 57 58 58 57 56 55 56 57 55 56 56 55 56 53
64 64 64 63 63 63 61 61 59 59 59 58 57 57 57 55 48 50 53 60 59 58 57 56 58 61 58 58 53 53 54 53 55 56 55 56 56 56 57 56 56 54 53
64 63 63 62 61 60 59 59 59 59 59 59 58 57 55 52 48 50 54 59 58 58 57 57 57 59 59 58 59 59 58 57 56 57 57 55 57 57 57 56 54 55 55
62 61 61 60 59 59 59 60 60 61 62 61 58 55 54 54 48 49 56 59 58 57 58 58 58 59 48 48 58 57 56 56 51 51 51 49 48 49 53 55 54 54 53
60 60 59 59 59 58 59 60 61 61 61 60 58 56 54 55 46 46 54 59 57 58 57 56 48 55 45 46 57 57 56 55 55 54 53 50 52 50 50 55 55 54 52
59 59 59 59 58 59 60 61 60 61 61 60 58 56 55 55 51 45 49 59 59 57 58 56 54 45 44 45 51 58 55 55 53 55 56 55 55 55 56 56 54 54 52
58 58 58 59 59 60 59 60 60 60 59 58 58 58 55 54 47 45 47 52 54 57 57 56 53 44 43 45 51 44 46 52 56 56 55 55 55 55 56 56 55 55 57
59 59 59 60 60 60 60 60 60 60 59 59 58 58 56 55 52 43 44 46 50 56 57 51 43 42 44 46 44 45 49 56 55 55 55 55 55 55 56 55 55 55 56
59 59 60 60 59 60 60 61 60 59 58 58 59 58 57 55 54 54 53 51 48 50 48 50 49 49 48 49 51 54 56 56 55 55 55 56 55 55 55 54 54 54 54
59 59 60 59 58 54 50 54 60 57 57 58 57 58 57 56 54 51 52 55 55 52 53 55 56 55 55 56 57 57 56 56 55 55 55 55 55 55 54 53 53 55 54
58 59 59 58 56 55 54 50 41 42 43 45 49 55 55 50 44 43 43 43 43 45 55 55 55 55 56 56 56 55 56 54 55 55 55 55 54 54 54 53 54 55 54
58 58 57 57 57 56 56 55 52 46 41 42 47 46 49 46 43 42 41 41 41 48 55 55 55 56 56 57 56 55 55 55 56 55 55 55 55 54 52 53 53 53 53
58 54 58 58 58 57 56 55 55 55 53 52 43 43 41 41 41 41 41 46 54 52 55 55 55 56 57 57 56 56 56 56 55 55 55 55 55 53 53 53 53 53 53
57 57 58 59 58 57 57 56 56 54 53 50 49 45 40 39 40 41 43 55 55 53 55 55 56 56 57 57 57 57 56 56 55 55 55 55 55 54 53 53 53 46 48
57 53 55 58 58 58 57 57 55 54 54 55 54 51 48 50 53 54 55 56 55 55 55 55 56 57 57 57 57 57 56 55 56 57 56 56 56 55 54 54 54 53 53
57 55 49 57 58 58 57 57 56 55 54 54 54 51 44 54 54 55 55 56 55 55 55 55 56 56 57 57 56 57 56 55 56 57 57 56 56 56 55 55 55 55 54
57 56 56 57 57 58 58 57 56 56 55 53 52 51 37 54 55 56 57 57 59 59 58 56 56 56 56 56 57 56 56 56 56 57 57 58 57 57 56 55 55 54 54
53 55 55 56 57 52 58 59 57 56 55 54 53 52 51 54 56 57 58 58 53 50 51 54 53 51 50 50 52 55 57 57 59 59 59 58 59 58 57 56 55 55 54
53 54 55 56 56 58 59 59 56 51 55 55 55 54 55 56 53 48 48 48 47 45 44 43 43 42 44 43 44 43 43 44 47 53 56 58 58 56 58 59 58 58 57
56 56 56 56 56 58 57 57 56 55 55 55 55 53 50 48 46 44 43 41 39 38 38 39 40 38 37 38 39 39 36 37 48 47 52 54 54 53 53 52 51 50 50
52 52 52 55 57 56 55 55 55 55 55 54 49 47 46 43 40 39 39 38 37 37 35 36 34 35 34 34 33 33 33 34 39 39 48 49 49 48 47 46 45 45 44

GFSGL_sfc_dewp_063.txt.gz
Dewpoint
49 54 57 61 61 63 64 66 66 66 66 66 66 66 66 65 65 64 63 62 61 60 59 59 58 58 57 58 58 57 56 55 52 58 59 60 61 62 62 62 62 61 59
48 53 57 61 63 65 65 66 66 66 66 66 66 66 66 65 64 63 63 62 61 59 59 58 58 59 58 58 58 57 57 56 55 55 58 59 60 62 61 61 62 62 61
60 60 63 64 65 65 66 66 66 66 66 66 66 66 65 65 63 63 62 61 60 59 59 58 58 59 57 57 57 57 57 58 56 56 57 59 60 61 59 60 59 59 60
63 63 64 65 66 66 66 66 66 66 66 66 66 65 65 64 63 61 61 60 60 59 59 58 58 59 57 57 58 59 59 57 57 57 58 57 58 59 59 58 56 58 57
64 64 64 65 66 67 67 66 66 67 65 65 64 64 64 63 62 61 60 59 59 58 58 58 58 58 58 57 59 59 58 58 57 57 56 56 57 57 57 57 55 56 56
64 64 65 65 66 67 67 66 65 65 64 64 63 62 62 62 52 53 58 59 59 58 57 57 57 57 56 54 55 56 58 58 56 56 54 55 56 56 57 56 56 55 54
64 65 64 64 64 64 64 64 64 63 63 62 60 60 59 57 48 50 54 61 58 57 57 56 56 59 57 58 53 53 53 53 56 57 55 57 56 57 57 56 56 53 53
63 64 64 63 62 62 62 61 60 61 60 58 57 57 56 53 46 47 50 58 57 57 56 56 56 57 57 58 58 59 58 58 57 57 57 56 55 57 57 57 54 55 55
59 63 63 62 61 60 59 59 59 59 57 56 56 55 55 53 46 46 55 57 57 56 56 56 57 58 50 49 59 58 57 55 51 51 51 49 48 49 53 55 55 54 53
55 62 62 62 60 59 59 59 59 59 58 57 55 55 51 53 45 47 55 58 57 58 57 56 49 55 45 46 58 57 55 55 54 53 53 49 50 50 50 55 55 54 52
59 62 61 61 59 60 59 60 60 60 58 57 55 55 55 54 50 45 49 58 59 58 57 56 54 44 44 44 50 57 55 55 53 55 55 55 54 54 55 55 55 54 52
63 61 60 59 59 59 59 60 61 60 58 56 56 55 56 54 47 45 45 51 53 57 57 56 53 43 42 43 50 43 45 51 56 55 55 54 55 55 55 55 54 55 55
61 59 59 59 59 59 59 60 59 59 58 57 57 56 55 55 52 44 44 45 49 56 56 51 44 41 42 44 43 44 48 56 56 55 54 55 55 55 56 55 54 55 55
59 59 59 59 59 59 59 59 59 58 59 58 57 56 55 54 54 54 52 51 47 50 48 49 47 48 48 48 50 53 56 56 55 55 55 55 56 55 55 55 53 54 54
59 59 59 59 59 56 51 55 59 57 58 58 58 57 55 53 53 52 53 56 55 52 52 55 55 54 53 55 56 56 56 56 55 55 55 55 55 55 54 54 54 54 54
59 59 58 57 57 55 54 50 41 41 44 46 48 54 54 47 42 43 45 43 43 45 55 55 55 55 55 56 55 55 56 54 55 55 55 55 54 54 54 53 54 54 53
59 58 57 56 57 56 56 56 52 46 41 41 43 43 47 44 41 41 41 40 41 48 56 55 55 56 56 56 56 55 55 55 55 55 55 55 55 54 53 53 53 54 54
59 51 57 57 57 57 56 56 55 55 55 53 42 43 41 41 40 40 41 46 53 53 56 55 56 56 57 56 56 55 55 55 55 55 55 55 55 53 53 53 53 53 53
57 57 58 58 57 55 55 55 55 55 54 51 48 43 40 39 39 40 43 55 55 55 55 55 56 57 57 57 57 56 56 55 55 55 55 55 55 54 53 54 53 46 49
57 50 55 58 57 56 56 55 54 53 53 54 54 50 46 50 52 53 54 56 53 54 55 56 56 57 57 57 57 57 56 55 55 55 55 55 55 54 53 53 53 53 53
57 57 48 58 57 57 56 55 54 54 54 54 53 50 42 55 53 54 55 54 56 55 56 56 56 57 58 57 57 57 56 56 56 57 56 56 56 55 54 54 54 54 54
57 57 58 58 58 57 57 55 55 54 54 54 53 47 40 54 55 56 56 58 58 57 56 56 56 57 57 57 57 57 56 54 54 56 56 57 56 56 55 55 55 55 55
57 57 58 59 58 51 56 56 55 55 53 53 52 51 54 55 56 57 55 52 51 50 51 54 53 51 51 50 51 55 56 56 57 57 57 57 58 58 57 56 55 55 54
56 57 57 58 58 58 57 56 55 50 53 53 52 53 55 53 51 49 48 47 45 45 44 43 43 44 45 44 44 44 44 47 51 54 56 59 59 55 58 58 57 57 57
57 58 57 58 58 58 56 56 55 55 54 53 53 50 48 46 44 43 43 41 41 39 38 39 41 39 39 40 41 40 36 35 47 44 53 55 53 53 51 50 49 48 46
54 56 57 58 58 57 56 55 55 55 54 51 47 44 43 41 40 40 39 37 36 36 35 35 34 34 34 34 34 33 34 34 39 38 49 49 48 47 46 44 43 43 42

GFSGL_sfc_dewp_069.txt.gz
Dewpoint
58 61 61 58 59 63 64 65 65 67 67 66 67 68 69 70 71 71 70 69 68 65 65 65 66 66 63 62 62 61 60 59 56 59 60 62 63 63 63 64 63 64 64
53 58 61 59 58 63 64 63 64 66 66 65 66 67 68 69 70 69 68 67 66 64 65 66 65 63 65 65 62 63 61 62 58 60 60 61 62 63 63 63 63 62 63
51 55 59 61 59 63 64 64 65 65 66 65 66 67 68 69 69 68 68 67 66 65 65 66 65 64 64 63 63 62 61 61 61 58 59 61 62 63 62 62 61 63 63
50 52 56 63 59 62 64 66 66 65 65 66 66 67 68 68 68 67 67 66 65 64 65 66 64 63 64 64 63 64 63 61 61 59 59 60 61 62 62 59 59 61 61
50 51 56 64 58 60 63 65 66 66 66 66 67 68 68 68 66 67 66 65 65 64 65 64 64 62 60 62 62 63 63 61 60 58 58 59 59 59 60 60 59 59 60
51 52 55 64 58 61 64 65 66 66 66 67 67 68 68 66 53 56 63 65 65 64 64 64 64 59 59 55 56 57 61 63 61 59 58 57 59 59 60 60 58 58 57
50 52 56 64 61 61 63 65 65 66 67 68 68 68 68 67 51 52 56 65 64 64 64 64 62 61 61 61 54 53 54 54 57 62 59 59 60 59 59 59 58 58 58
50 52 58 63 63 63 65 64 66 66 66 68 68 68 68 64 49 50 53 65 64 64 64 64 64 63 62 61 60 61 61 62 60 61 61 61 61 60 61 60 61 59 59
50 54 57 63 63 63 63 65 66 66 66 67 68 66 64 57 47 47 56 64 63 63 63 63 63 63 51 49 60 60 60 60 51 51 52 52 51 51 57 58 56 56 56
51 56 57 62 63 64 65 66 66 66 65 66 62 65 58 60 44 47 57 61 62 61 62 62 50 57 45 45 61 59 59 58 57 56 56 53 53 54 51 60 57 55 55
52 55 57 62 64 64 64 64 64 64 64 61 59 60 61 59 52 46 50 62 60 60 59 60 60 47 44 44 50 61 58 57 55 57 57 57 59 58 58 59 61 58 55
55 56 59 63 64 63 63 63 63 63 61 59 60 59 57 57 51 46 47 54 55 60 59 60 58 44 42 43 51 45 45 52 57 57 57 56 56 57 58 59 60 60 60
57 58 61 63 62 62 61 61 61 61 59 60 58 57 56 57 55 45 45 47 50 59 59 54 44 42 42 46 43 44 47 57 57 57 56 56 57 58 59 59 60 60 59
56 58 62 61 61 62 61 62 61 61 60 57 56 56 56 56 57 56 55 53 48 53 49 52 49 49 48 50 49 52 58 58 57 57 57 58 57 57 56 57 57 56 56
57 60 60 60 60 57 57 61 63 63 58 58 58 57 57 57 58 54 55 59 59 53 53 54 55 55 54 56 57 58 57 57 57 57 57 57 56 56 56 56 56 56 54
57 59 59 57 57 58 56 53 41 45 46 46 49 55 57 50 44 44 44 44 43 45 56 55 55 55 55 56 57 57 57 55 57 57 57 56 56 55 55 56 56 55 54
58 59 59 57 58 58 57 56 53 47 41 41 43 44 47 46 42 42 42 42 42 48 57 56 55 56 56 57 57 57 56 56 57 56 56 56 56 55 54 55 56 55 56
59 51 58 60 59 57 58 58 57 57 56 54 42 45 42 42 42 41 41 45 53 54 58 56 56 57 57 57 57 57 57 57 56 56 56 56 56 55 54 54 55 56 56
58 59 59 58 57 56 58 58 58 58 56 53 50 44 41 39 40 40 43 56 56 57 57 57 57 57 58 57 57 57 56 56 56 56 56 56 56 55 55 54 54 47 50
58 51 54 58 57 58 58 57 57 57 56 56 56 50 49 51 54 56 57 57 57 57 57 57 58 58 58 57 57 57 57 56 56 56 56 56 56 55 54 54 54 54 54
58 57 50 58 57 57 57 56 56 57 57 57 54 50 43 55 54 55 56 56 56 56 57 57 58 59 59 58 57 56 56 56 56 56 56 56 56 55 55 55 55 55 55
57 57 59 57 57 57 57 56 57 56 55 54 52 47 39 55 56 56 57 57 58 58 58 58 58 59 59 58 57 57 56 56 56 56 56 57 56 55 55 55 55 55 55
57 58 59 57 57 51 55 57 56 55 54 53 54 54 55 55 56 53 50 50 52 52 52 54 55 53 54 56 59 58 57 57 58 58 57 57 57 57 57 56 56 56 55
58 59 58 57 57 55 57 56 55 50 54 55 55 56 55 52 49 47 45 45 44 45 44 45 44 45 47 49 49 49 53 54 59 59 59 59 58 56 59 59 58 58 57
59 59 59 56 56 55 55 55 54 54 54 53 52 49 48 45 43 43 41 41 41 39 39 40 40 39 41 43 44 45 37 36 52 47 58 57 54 53 52 51 49 47 47
60 59 58 57 56 55 54 54 54 52 50 48 47 44 43 41 39 39 39 39 37 36 35 37 37 37 37 37 37 35 34 35 39 38 48 47 46 44 42 41 41 41 41

GFSGL_sfc_dewp_072.txt.gz
Dewpoint
52 55 56 58 60 62 63 63 65 68 67 66 68 69 69 69 70 71 71 70 70 70 70 68 68 68 65 62 61 61 59 57 54 60 61 63 64 63 64 64 64 64 63
48 51 55 57 58 61 64 64 64 65 64 64 65 67 66 66 70 70 70 68 69 69 67 68 67 65 68 66 62 64 61 61 57 60 62 61 62 65 64 64 63 63 64
46 48 53 56 57 60 64 65 64 63 63 64 64 65 64 65 68 69 69 68 69 68 67 67 67 67 66 63 64 62 60 60 61 58 60 60 62 64 63 63 63 64 63
45 48 51 55 57 59 64 65 63 62 62 63 65 64 63 64 66 67 68 68 68 67 68 68 66 66 65 65 64 63 62 62 61 59 60 59 61 63 62 61 60 62 62
45 47 51 54 56 58 62 64 62 63 63 64 64 63 64 65 64 67 67 68 69 68 68 66 66 63 61 62 61 64 66 62 60 58 59 59 60 61 62 60 59 61 61
45 46 50 54 55 57 62 62 63 64 66 66 65 63 66 63 55 57 65 68 68 67 66 66 64 61 60 57 57 57 61 65 63 59 62 59 61 61 63 60 59 59 57
43 46 49 52 55 57 61 60 63 68 70 68 68 65 67 67 53 54 57 68 67 67 66 65 62 60 61 62 55 54 55 55 57 65 62 61 62 61 61 62 60 58 57
44 46 50 53 55 57 62 60 67 69 70 69 69 68 68 66 51 52 55 68 67 66 65 64 64 63 63 63 62 61 61 61 62 61 64 63 63 64 62 62 61 62 61
44 48 51 54 55 58 62 64 68 68 69 69 67 68 69 64 49 50 59 66 64 63 62 63 64 63 54 51 61 60 61 62 52 50 50 51 50 52 57 61 59 57 57
45 48 51 53 57 58 63 66 68 67 67 66 67 68 63 65 47 50 58 59 62 59 63 64 52 58 47 47 62 61 59 61 60 60 60 56 54 56 51 63 58 57 57
46 50 53 54 59 63 65 66 66 67 67 67 67 67 66 63 54 48 49 59 57 58 59 61 60 46 44 45 48 62 60 60 55 59 59 60 60 60 60 61 60 59 58
49 52 54 57 62 64 67 67 67 66 64 64 63 64 63 62 53 49 47 52 55 59 59 60 59 44 44 44 50 46 46 53 59 59 57 57 58 58 59 60 63 63 62
50 54 58 61 64 64 65 64 64 64 63 62 62 60 61 62 61 46 45 48 52 61 59 54 45 42 42 46 44 44 47 59 58 57 57 57 59 59 59 60 61 60 60
51 54 58 62 63 63 63 63 63 63 64 64 60 60 62 59 59 60 59 59 50 56 51 55 52 51 49 53 51 51 59 59 58 57 57 58 59 59 58 58 59 59 57
53 58 59 62 62 61 59 61 62 64 62 62 62 62 58 59 59 56 57 59 59 55 57 57 57 57 56 57 57 58 58 58 57 58 58 57 58 57 57 58 59 58 54
53 58 59 57 57 58 57 55 44 50 48 47 50 54 57 50 46 46 44 44 45 46 56 57 58 57 56 57 58 57 56 55 57 57 57 57 56 56 56 56 56 56 54
56 58 58 57 59 59 60 58 55 51 43 41 43 46 48 48 44 43 42 42 43 46 57 57 57 57 57 58 57 56 55 56 57 57 57 57 56 56 55 55 55 56 56
55 51 59 59 60 61 60 59 58 57 56 55 44 48 42 42 41 41 42 46 55 55 58 57 57 57 58 58 57 56 56 57 57 56 57 57 57 56 56 55 56 56 56
57 59 60 61 61 60 60 59 59 57 56 53 52 46 42 40 41 42 44 57 57 58 58 57 57 57 58 57 57 57 57 56 56 56 56 57 57 56 55 55 56 48 51
58 51 54 62 60 59 59 58 57 56 55 55 55 52 51 52 55 55 57 56 57 58 58 58 57 58 59 59 58 57 56 56 56 56 56 56 56 55 55 55 55 54 55
59 59 53 58 57 58 59 58 57 56 55 55 56 54 46 54 55 55 55 57 57 57 58 58 58 59 59 58 57 56 56 55 55 55 55 55 56 54 55 55 55 55 55
60 58 58 55 57 59 58 59 57 56 55 56 55 54 39 55 55 56 56 57 58 58 59 59 59 59 59 59 56 56 55 56 55 56 55 55 55 55 55 55 55 55 55
59 58 59 58 58 53 57 57 57 56 55 55 56 54 54 57 56 54 53 55 54 53 54 56 57 58 60 60 57 57 56 56 56 56 56 56 55 56 57 56 55 57 56
59 59 58 57 57 57 57 57 56 52 55 56 56 57 55 53 49 48 49 48 48 47 46 46 47 48 50 55 56 55 57 57 59 59 58 58 57 56 58 58 58 57 57
58 58 57 57 57 57 56 56 55 55 56 55 53 51 49 48 45 43 43 43 44 42 42 42 43 44 46 48 50 49 40 37 54 48 59 54 52 52 51 50 48 48 48
58 58 57 57 56 56 55 55 54 53 51 49 49 48 46 43 42 41 40 41 41 40 39 39 40 41 42 40 38 35 34 36 44 39 49 49 47 46 44 43 42 42 42

GFSGL_sfc_dewp_075.txt.gz
Dewpoint
48 52 52 53 55 58 61 63 65 68 68 67 66 69 71 73 74 75 73 70 70 72 72 72 72 73 66 68 66 62 57 57 60 61 61 66 65 64 63 63 64 64 64
44 46 50 52 53 58 59 61 64 66 66 66 66 66 68 70 73 72 71 67 70 70 71 70 70 67 70 71 66 68 61 68 60 65 63 62 63 65 64 64 64 62 65
39 42 47 53 54 58 60 61 61 64 65 64 63 64 66 68 71 72 70 67 70 70 70 70 69 69 70 70 68 63 61 62 61 58 64 65 61 65 64 64 64 64 64
38 39 44 51 54 55 58 60 61 61 64 63 64 63 65 67 68 69 68 69 70 69 71 70 67 68 69 69 68 66 65 65 62 66 65 63 61 65 64 61 61 63 62
39 40 44 50 50 53 56 58 60 62 66 62 62 64 65 66 64 68 69 70 71 70 71 68 69 67 63 66 62 66 66 62 61 64 63 64 60 60 61 62 59 61 62
41 40 44 46 46 52 56 59 59 61 66 63 63 63 66 64 55 57 66 70 71 70 69 68 68 62 61 59 58 57 62 66 64 66 65 63 63 62 66 62 59 58 58
41 41 44 45 45 49 52 55 59 63 67 66 66 66 67 69 52 53 58 71 70 70 69 69 65 62 62 63 56 55 56 56 58 66 64 64 61 63 63 64 63 59 61
41 41 43 43 46 50 53 56 61 63 66 66 68 69 69 68 51 53 56 71 70 69 69 68 67 65 63 62 61 61 61 62 63 61 64 65 66 66 64 65 64 64 62
39 42 43 44 45 50 55 58 61 64 66 68 69 69 69 66 51 53 61 69 68 67 66 66 65 63 55 53 62 62 62 62 52 51 50 50 51 51 58 63 63 62 58
41 44 45 46 49 53 55 57 60 63 66 68 69 69 64 67 49 52 61 64 66 64 66 64 52 59 49 50 63 62 61 63 61 61 61 57 55 55 53 64 61 60 59
43 46 47 48 52 56 57 58 61 63 67 68 68 69 70 66 61 52 50 64 62 61 59 61 61 47 46 46 50 63 61 61 58 61 61 61 61 61 60 62 63 59 58
44 46 49 52 53 56 57 56 58 62 65 68 67 68 68 66 56 47 48 53 56 60 58 61 58 45 44 45 51 46 47 55 59 59 59 60 59 61 61 62 62 62 62
48 50 52 53 54 54 55 55 58 64 64 65 65 63 63 64 60 47 48 48 51 62 62 52 45 43 44 48 45 45 48 59 59 58 58 58 58 60 61 61 63 62 62
49 53 53 52 53 57 56 57 63 64 63 63 63 61 61 62 61 61 59 59 52 56 52 57 53 52 51 54 54 53 59 60 59 58 57 59 60 60 59 61 59 59 57
50 52 53 55 53 53 56 62 64 64 62 63 63 62 62 61 62 57 58 59 59 56 58 58 58 58 58 58 58 58 59 59 59 59 58 57 58 59 59 59 58 59 57
51 54 55 58 58 59 57 53 44 46 47 49 53 59 61 53 48 46 44 45 47 48 57 57 58 58 58 57 57 59 59 57 59 59 59 58 56 58 58 59 59 59 58
55 54 55 58 59 59 59 57 54 50 45 44 47 49 51 50 43 43 43 44 44 48 57 57 57 58 58 57 59 58 56 57 59 58 57 57 57 56 55 55 55 56 56
54 50 55 60 60 60 60 60 58 57 57 56 44 48 43 43 42 41 43 48 55 53 57 57 58 58 58 58 58 58 58 56 57 57 57 57 57 56 55 55 55 56 56
55 56 60 61 61 59 61 59 57 57 56 54 52 46 43 40 41 42 46 57 55 57 58 57 57 58 58 59 59 59 57 56 56 56 57 57 57 56 56 56 57 47 50
57 51 54 61 61 61 61 61 58 56 56 56 55 52 50 52 55 56 57 57 56 57 59 57 57 58 58 58 57 59 58 55 56 56 56 57 58 56 55 55 55 56 56
56 59 50 61 61 60 61 59 55 56 55 55 55 54 46 57 56 56 56 57 57 57 59 58 57 58 59 59 58 56 56 55 55 57 56 56 56 55 55 57 55 55 55
59 59 61 60 61 60 59 57 57 56 55 55 57 54 40 55 54 55 56 57 58 58 59 59 59 59 59 59 57 56 54 55 57 55 57 57 55 55 54 54 55 55 56
58 56 59 60 60 53 60 59 58 55 55 55 54 54 55 57 57 56 56 56 56 56 56 59 59 60 61 61 58 56 56 55 55 55 55 55 55 57 57 56 55 57 56
59 59 58 59 59 60 59 58 57 50 54 56 57 57 54 53 53 52 52 50 49 47 47 49 51 51 59 59 58 57 56 58 59 58 58 57 57 56 58 58 58 56 57
58 59 59 60 58 57 58 57 55 54 56 57 56 53 50 48 47 46 47 46 44 44 43 44 46 47 49 54 53 53 41 38 55 50 58 57 54 55 51 49 48 48 49
60 59 58 58 57 57 56 56 55 55 53 51 51 50 47 43 42 42 44 43 40 40 39 40 42 42 41 42 39 35 35 37 46 41 50 49 47 46 45 44 42 41 42